Weather in Shozhma

Russia / Arkhangel'skaya Oblast'     61°51′40″N   40°13′24″E
temp.,
°C
wind,
m/s
gust,
m/s
humid.,
%
clouds,
%
prec.,
mm/h
press.,
hPa
HPBL,
m
26 october, tue
tue2600:000ese1498100 2.8 1008153
03:00+1wnw1599100 4.1 1008209
06:00+2wsw17100100 1.1 1008260
09:00+4wsw3998100 1.3 1008662
12:00+3wsw41099100 0.3 1008607
15:00+3sw4998100 0.6 1008546
18:00+2sw41098100 0.0 1008553
21:00+2sw41098100 0.1 1007585
27 october, wed
wed2700:00+2sw41298100 0.1 1006518
03:00+3sw41198100 0.3 1004514
06:00+3sw41098100 0.1 1003410
09:00+2ssw41098100 0.5 1001403
12:00+1ssw3999100 3.0 1000330
15:00+1sw2899100 5.5 999340
18:000wsw3799100 1.4 998244
21:00+1w3999100 2.6 999546
28 october, thu
thu2800:00+3nw4898100 0.3 1000754
03:000nnw4892100 0.3 1002846
06:00−2n4892100 0.1 1006647
09:00−4n5982100 0.2 1010768
12:00−3nne498256 0.1 1014771
15:00−3n410765 0.1 1017849
18:00−5nnw29915 0.0 1022323
21:00−6nnw14975 0.0 102488
29 october, fri
fri2900:00−7nnw009835 0.0 102611
03:00−7sw1397100 0.0 102854
06:00−5ssw3987100 0.0 1027303
09:00−4ssw51476100 0.0 1025620
12:00−2ssw61765100 0.0 1022796
15:00−3ssw71994100 1.8 1018760
18:00−1sw61695100 2.4 1015704
21:00+2sw51698100 4.4 1014653
30 october, sat
sat3000:00+5wsw51498100 0.3 1014650
03:00+6wsw51398100 0.3 1014707
06:00+5wsw51398100 0.0 1014743
09:00+5wsw41396100 0.1 1014793
12:00+6wsw51397100 0.1 1014911
15:00+6wsw41395100 0.2 1013706
18:00+6sw41396100 0.0 1013612
21:00+6sw51296100 0.0 1013618